Okmulgee, OK

12:06 PM CDT on September 15, 2019 (GMT -0500)
Okmulgee Regional

Weather History for KOKM - August, 2019

Change the Weather History Date:

Monday, August 19, 2019

  Actual Average (WUND) Record (WUND)
Temperature  
Mean Temperature 87 °F -  
Max Temperature 102 °F - - (-1)
Min Temperature 72 °F - - (-1)
Cooling Degree Days 22    
Growing Degree Days 37 (Base 50)    
Moisture  
Dew Point 73 °F    
Average Humidity 68    
Maximum Humidity 100    
Minimum Humidity 34    
Precipitation  
Precipitation 0.00 in - - ()
Sea Level Pressure  
Sea Level Pressure 29.95 in    
Wind  
Wind Speed 4 mph ()    
Max Wind Speed 13 mph    
Max Gust Speed 26 mph    
Visibility 10.0 miles    
Events      
Averages and records for this station are not official NWS values.
T = Trace of Precipitation, MM = Missing Value Source: Averaged Metar Reports

Daily Weather History Graph

Daily Weather History Graph

Search for Another Location

Airport or City:

Astronomy

Aug. 19, 2019 Rise Set
Actual Time 6:45 AM CDT 8:08 PM CDT
Civil Twilight 6:18 AM CDT 8:35 PM CDT
Nautical Twilight 5:46 AM CDT 9:07 PM CDT
Astronomical Twilight 5:13 AM CDT 9:40 PM CDT
Moon 10:37 PM CDT (8/19) 10:21 AM CDT (8/19)
Length of Visible Light 14h 16m
Length of Day
13h 22m
Waning Gibbous, 85% of the Moon is Illuminated
Aug 19
Waning Gibbous
Aug 23
Last Quarter
Aug 30
New
Sep 5
First Quarter
Sep 13
Full

Hourly Weather History & Observations

Time (CDT) Temp. Heat Index Dew Point Humidity Pressure Visibility Wind Dir Wind Speed Gust Speed Precip Events Conditions
12:15 AM 79.5 °F - 74.7 °F 85% 29.91 in 10.0 mi Calm Calm - N/A   Overcast
12:35 AM 78.6 °F - 75.4 °F 90% 29.91 in 10.0 mi Calm Calm - N/A   Mostly Cloudy
12:55 AM 78.3 °F - 75.7 °F 92% 29.92 in 10.0 mi ENE 4.6 mph - N/A   Mostly Cloudy
1:15 AM 78.6 °F - 74.8 °F 88% 29.92 in 10.0 mi Calm Calm - N/A   Mostly Cloudy
1:35 AM 78.3 °F - 75.0 °F 90% 29.92 in 10.0 mi ESE 3.5 mph - N/A   Scattered Clouds
1:55 AM 77.4 °F - 75.4 °F 94% 29.92 in 10.0 mi North - - N/A   Clear
2:15 AM 77.4 °F - 75.6 °F 94% 29.93 in 10.0 mi North - - N/A   Scattered Clouds
2:35 AM 77.0 °F - 77.0 °F 100% 29.92 in 10.0 mi North - - N/A   Mostly Cloudy
2:55 AM 76.8 °F - 76.8 °F 100% 29.92 in 10.0 mi North - - N/A   Scattered Clouds
3:15 AM 76.3 °F - 76.3 °F 100% 29.92 in 10.0 mi East 5.8 mph - N/A   Scattered Clouds
3:35 AM 76.1 °F - 76.1 °F 100% 29.93 in 10.0 mi Calm Calm - N/A   Clear
3:55 AM 76.1 °F - 76.1 °F 100% 29.93 in 10.0 mi Calm Calm - N/A   Mostly Cloudy
4:15 AM 76.5 °F - 76.5 °F 100% 29.93 in 10.0 mi ESE 3.5 mph - N/A   Mostly Cloudy
4:35 AM 76.1 °F - 76.1 °F 100% 29.94 in 10.0 mi Calm Calm - N/A   Scattered Clouds
4:55 AM 73.8 °F - 73.8 °F 100% 29.93 in 10.0 mi Calm Calm - N/A   Clear
5:15 AM 74.3 °F - 74.3 °F 100% 29.94 in 10.0 mi NE 3.5 mph - N/A   Clear
5:35 AM 73.4 °F - 73.4 °F 100% 29.94 in 10.0 mi ENE 3.5 mph - N/A   Clear
5:55 AM 73.9 °F - 73.9 °F 100% 29.95 in 10.0 mi ENE 3.5 mph - N/A   Clear
6:15 AM 72.9 °F - 72.9 °F 100% 29.96 in 10.0 mi ENE 3.5 mph - N/A   Clear
6:35 AM 73.4 °F - 73.4 °F 100% 29.96 in 10.0 mi East 9.2 mph - N/A   Clear
6:55 AM 73.6 °F - 73.6 °F 100% 29.97 in 10.0 mi East 5.8 mph - N/A   Clear
7:15 AM 73.9 °F - 73.9 °F 100% 29.98 in 10.0 mi East 4.6 mph - N/A   Clear
7:35 AM 75.2 °F - 75.2 °F 100% 29.98 in 10.0 mi ESE 4.6 mph - N/A   Clear
7:55 AM 77.0 °F - 77.0 °F 100% 29.98 in 10.0 mi SE 4.6 mph - N/A   Clear
8:15 AM 79.3 °F - 77.4 °F 94% 29.98 in 10.0 mi SE 5.8 mph - N/A   Clear
8:55 AM 83.1 °F 91.3 °F 75.9 °F 79% 29.99 in 10.0 mi SSE 5.8 mph - N/A   Clear
9:15 AM 85.1 °F 92.6 °F 73.9 °F 69% 29.99 in 10.0 mi South 8.1 mph - N/A   Clear
9:35 AM 86.2 °F 94.2 °F 73.9 °F 67% 29.99 in 10.0 mi South 6.9 mph - N/A   Clear
9:55 AM 88.0 °F 96.5 °F 73.9 °F 63% 29.99 in 10.0 mi South 8.1 mph 19.6 mph N/A   Clear
10:15 AM 89.4 °F 98.3 °F 73.8 °F 60% 29.99 in 10.0 mi South 6.9 mph 20.7 mph N/A   Clear
10:35 AM 90.5 °F 99.7 °F 73.9 °F 58% 30.00 in 10.0 mi South 6.9 mph - N/A   Clear
10:55 AM 92.5 °F 102.6 °F 73.9 °F 55% 30.00 in 10.0 mi SSW 9.2 mph - N/A   Clear
11:15 AM 93.0 °F 103.2 °F 73.9 °F 54% 30.00 in 10.0 mi SSW 8.1 mph - N/A   Clear
11:35 AM 95.0 °F 105.9 °F 74.3 °F 51% 29.99 in 10.0 mi South 11.5 mph - N/A   Clear
11:55 AM 95.2 °F 106.4 °F 74.3 °F 51% 29.99 in 10.0 mi SSW 8.1 mph - N/A   Clear
12:15 PM 96.6 °F 106.9 °F 73.6 °F 47% 29.98 in 10.0 mi SSW 10.4 mph 19.6 mph N/A   Clear
12:35 PM 97.7 °F 107.9 °F 72.9 °F 45% 29.98 in 10.0 mi SSW 10.4 mph 26.5 mph N/A   Clear
12:55 PM 98.4 °F 108.0 °F 72.3 °F 43% 29.98 in 10.0 mi SSW 9.2 mph 19.6 mph N/A   Clear
1:15 PM 99.3 °F 109.3 °F 72.3 °F 42% 29.97 in 10.0 mi South 10.4 mph 17.3 mph N/A   Clear
1:35 PM 99.7 °F 110.1 °F 73.0 °F 42% 29.97 in 10.0 mi SE 11.5 mph 18.4 mph N/A   Clear
1:55 PM 99.5 °F 109.7 °F 72.9 °F 42% 29.96 in 10.0 mi South 9.2 mph - N/A   Clear
2:15 PM 100.2 °F 110.6 °F 72.3 °F 41% 29.96 in 10.0 mi South 12.7 mph - N/A   Clear
2:35 PM 100.9 °F 108.9 °F 70.0 °F 37% 29.96 in 10.0 mi SSE 11.5 mph 20.7 mph N/A   Clear
2:55 PM 101.1 °F 109.3 °F 70.5 °F 37% 29.95 in 10.0 mi SSW 10.4 mph 17.3 mph N/A   Clear
3:15 PM 101.1 °F 110.1 °F 71.1 °F 38% 29.94 in 10.0 mi SW 8.1 mph 17.3 mph N/A   Clear
3:35 PM 101.1 °F 111.0 °F 71.6 °F 39% 29.94 in 10.0 mi SSW 6.9 mph - N/A   Clear
3:55 PM 101.7 °F 110.5 °F 71.2 °F 37% 29.93 in 10.0 mi SSE 9.2 mph 20.7 mph N/A   Clear
4:15 PM 102.4 °F 110.4 °F 70.3 °F 35% 29.93 in 10.0 mi SSE 9.2 mph 21.9 mph N/A   Scattered Clouds
4:35 PM 101.1 °F 108.5 °F 69.6 °F 36% 29.92 in 10.0 mi SE 9.2 mph - N/A   Clear
5:15 PM 102.0 °F 108.8 °F 68.9 °F 34% 29.92 in 10.0 mi SSE 10.4 mph 21.9 mph N/A   Clear
5:55 PM 101.3 °F 107.4 °F 68.4 °F 34% 29.91 in 10.0 mi SE 9.2 mph - N/A   Clear
6:15 PM 100.8 °F 107.0 °F 68.5 °F 35% 29.91 in 10.0 mi SSE 6.9 mph - N/A   Clear
6:35 PM 100.2 °F 106.7 °F 69.1 °F 36% 29.91 in 10.0 mi SSE 5.8 mph - N/A   Clear
6:55 PM 99.3 °F 106.3 °F 69.8 °F 38% 29.91 in 10.0 mi SSE 4.6 mph - N/A   Clear
7:15 PM 97.5 °F 104.6 °F 70.5 °F 41% 29.91 in 10.0 mi SSE 4.6 mph - N/A   Clear
7:35 PM 94.5 °F 101.4 °F 71.1 °F 46% 29.92 in 10.0 mi SSE 3.5 mph - N/A   Clear
7:55 PM 92.7 °F 99.9 °F 71.8 °F 50% 29.92 in 10.0 mi SSE 4.6 mph - N/A   Clear
8:15 PM 90.0 °F 97.4 °F 72.1 °F 56% 29.93 in 10.0 mi South 9.2 mph - N/A   Clear
8:35 PM 87.1 °F 94.1 °F 72.9 °F 62% 29.93 in 10.0 mi East 5.8 mph - N/A   Clear
8:55 PM 88.7 °F 97.2 °F 73.8 °F 61% 29.94 in 10.0 mi ESE 4.6 mph - N/A   Clear
9:15 PM 88.3 °F 97.4 °F 74.3 °F 63% 29.96 in 10.0 mi Calm Calm - N/A   Clear
9:35 PM 86.0 °F 94.2 °F 74.3 °F 68% 29.96 in 10.0 mi Calm Calm - N/A   Clear
9:55 PM 86.0 °F 94.2 °F 74.3 °F 68% 29.97 in 10.0 mi SE 4.6 mph - N/A   Clear
10:15 PM 86.2 °F 94.6 °F 74.3 °F 68% 29.97 in 10.0 mi SE 3.5 mph - N/A   Clear
10:35 PM 85.3 °F 92.6 °F 73.8 °F 68% 29.98 in 10.0 mi Calm Calm - N/A   Clear
10:55 PM 85.3 °F 92.6 °F 73.6 °F 68% 29.98 in 10.0 mi Calm Calm - N/A   Clear
11:15 PM 85.3 °F 92.2 °F 73.0 °F 67% 29.98 in 10.0 mi Calm Calm - N/A   Clear
11:35 PM 83.8 °F 90.4 °F 73.4 °F 71% 29.98 in 10.0 mi SSE 3.5 mph - N/A   Clear
11:55 PM 83.3 °F 89.3 °F 73.0 °F 71% 29.99 in 10.0 mi Calm Calm - N/A   Clear